Time,TemperatureF,DewpointF,PressureIn,WindDirection,WindDirectionDegrees,WindSpeedMPH,WindSpeedGustMPH,Humidity,HourlyPrecipIn,Conditions,Clouds,dailyrainin,SolarRadiationWatts/m^2,SoftwareType,DateUTC
2013-12-11 00:22:00,-1.0,-10.0,-100.00,NNW,334,3.0,20.0,64,0.00,,,0.00,0.000000,,2013-12-11 06:22:00,
2013-12-11 00:32:00,-1.0,-10.0,-100.00,NNW,334,3.0,20.0,64,0.00,,,0.00,0.000000,,2013-12-11 06:32:00,
2013-12-11 00:42:00,-1.0,-10.0,-100.00,NNW,334,3.0,20.0,64,0.00,,,0.00,0.000000,,2013-12-11 06:42:00,
2013-12-11 00:51:00,-3.0,-11.0,-100.00,North,-999,0.0,0.0,67,0.00,,,0.00,0.000000,,2013-12-11 06:51:00,
2013-12-11 01:22:00,-3.0,-11.0,-100.00,North,-999,0.0,0.0,67,0.00,,,0.00,0.000000,,2013-12-11 07:22:00,
2013-12-11 01:32:00,-3.0,-11.0,-100.00,North,-999,0.0,0.0,67,0.00,,,0.00,0.000000,,2013-12-11 07:32:00,
2013-12-11 01:42:00,-3.0,-11.0,-100.00,North,-999,0.0,0.0,67,0.00,,,0.00,0.000000,,2013-12-11 07:42:00,
2013-12-11 01:51:00,-5.0,-14.0,-100.00,North,-999,0.0,0.0,64,0.00,,,0.00,0.000000,,2013-12-11 07:51:00,
2013-12-11 02:22:00,-5.0,-14.0,-100.00,North,-999,0.0,0.0,64,0.00,,,0.00,0.000000,,2013-12-11 08:22:00,
2013-12-11 02:32:00,-5.0,-14.0,-100.00,North,-999,0.0,0.0,64,0.00,,,0.00,0.000000,,2013-12-11 08:32:00,
2013-12-11 02:42:00,-5.0,-14.0,-100.00,North,-999,0.0,0.0,64,0.00,,,0.00,0.000000,,2013-12-11 08:42:00,
2013-12-11 02:51:00,-6.0,-14.0,-100.00,North,-999,0.0,0.0,67,0.00,,,0.00,0.000000,,2013-12-11 08:51:00,
2013-12-11 03:22:00,-6.0,-14.0,-100.00,North,-999,0.0,0.0,67,0.00,,,0.00,0.000000,,2013-12-11 09:22:00,
2013-12-11 03:33:00,-6.0,-14.0,-100.00,North,-999,0.0,0.0,67,0.00,,,0.00,0.000000,,2013-12-11 09:33:00,
2013-12-11 03:43:00,-6.0,-14.0,-100.00,North,-999,0.0,0.0,67,0.00,,,0.00,0.000000,,2013-12-11 09:43:00,
2013-12-11 03:51:00,-8.0,-16.0,-100.00,North,-999,0.0,0.0,67,0.00,,,0.00,0.000000,,2013-12-11 09:51:00,
2013-12-11 04:23:00,-8.0,-16.0,-100.00,North,-999,0.0,0.0,67,0.00,,,0.00,0.000000,,2013-12-11 10:23:00,
2013-12-11 04:34:00,-8.0,-16.0,-100.00,North,-999,0.0,0.0,67,0.00,,,0.00,0.000000,,2013-12-11 10:34:00,
2013-12-11 04:43:00,-8.0,-16.0,-100.00,North,-999,0.0,0.0,67,0.00,,,0.00,0.000000,,2013-12-11 10:43:00,
2013-12-11 04:51:00,-8.0,-16.0,-100.00,North,-999,0.0,0.0,68,0.00,,,0.00,0.000000,,2013-12-11 10:51:00,
2013-12-11 05:22:00,-8.0,-16.0,-100.00,North,-999,0.0,0.0,68,0.00,,,0.00,0.000000,,2013-12-11 11:22:00,
2013-12-11 05:33:00,-8.0,-16.0,-100.00,North,-999,0.0,0.0,68,0.00,,,0.00,0.000000,,2013-12-11 11:33:00,
2013-12-11 05:42:00,-8.0,-16.0,-100.00,North,-999,0.0,0.0,68,0.00,,,0.00,0.000000,,2013-12-11 11:42:00,
2013-12-11 05:51:00,-9.0,-18.0,-100.00,North,-999,0.0,0.0,65,0.00,,,0.00,0.000000,,2013-12-11 11:51:00,
2013-12-11 06:22:00,-9.0,-18.0,-100.00,North,-999,0.0,0.0,65,0.00,,,0.00,0.000000,,2013-12-11 12:22:00,
2013-12-11 06:32:00,-9.0,-18.0,-100.00,North,-999,0.0,0.0,65,0.00,,,0.00,0.000000,,2013-12-11 12:32:00,
2013-12-11 06:42:00,-9.0,-18.0,-100.00,North,-999,0.0,0.0,65,0.00,,,0.00,0.000000,,2013-12-11 12:42:00,
2013-12-11 06:51:00,-13.0,-20.0,-100.00,North,-999,0.0,0.0,68,0.00,,,-99.99,0.000000,,2013-12-11 12:51:00,
2013-12-11 07:22:00,-13.0,-20.0,-100.00,North,-999,0.0,0.0,68,0.00,,,-99.99,0.000000,,2013-12-11 13:22:00,
2013-12-11 07:32:00,-13.0,-20.0,-100.00,North,-999,0.0,0.0,68,0.00,,,-99.99,0.000000,,2013-12-11 13:32:00,
2013-12-11 07:42:00,-13.0,-20.0,-100.00,North,-999,0.0,0.0,68,0.00,,,-99.99,0.000000,,2013-12-11 13:42:00,
2013-12-11 07:51:00,-16.0,-23.0,-100.00,North,-999,0.0,0.0,70,0.00,,,-99.99,1.000000,,2013-12-11 13:51:00,
2013-12-11 08:21:00,-16.0,-23.0,-100.00,North,-999,0.0,0.0,70,0.00,,,-99.99,1.000000,,2013-12-11 14:21:00,
2013-12-11 08:32:00,-16.0,-23.0,-100.00,North,-999,0.0,0.0,70,0.00,,,-99.99,1.000000,,2013-12-11 14:32:00,
2013-12-11 08:42:00,-16.0,-23.0,-100.00,North,-999,0.0,0.0,70,0.00,,,-99.99,1.000000,,2013-12-11 14:42:00,
2013-12-11 08:51:00,-11.0,-19.0,-100.00,North,-999,0.0,0.0,68,0.00,,,0.00,40.000000,,2013-12-11 14:51:00,
2013-12-11 09:22:00,-11.0,-19.0,-100.00,North,-999,0.0,0.0,68,0.00,,,0.00,40.000000,,2013-12-11 15:22:00,
2013-12-11 09:33:00,-11.0,-19.0,-100.00,North,-999,0.0,0.0,68,0.00,,,0.00,40.000000,,2013-12-11 15:33:00,
2013-12-11 09:43:00,-11.0,-19.0,-100.00,North,-999,0.0,0.0,68,0.00,,,0.00,40.000000,,2013-12-11 15:43:00,
2013-12-11 09:51:00,-6.0,-16.0,-100.00,North,-999,0.0,0.0,60,0.00,,,0.00,186.000000,,2013-12-11 15:51:00,
2013-12-11 10:23:00,-6.0,-16.0,-100.00,North,-999,0.0,0.0,60,0.00,,,0.00,186.000000,,2013-12-11 16:23:00,
2013-12-11 10:33:00,-6.0,-16.0,-100.00,North,-999,0.0,0.0,60,0.00,,,0.00,186.000000,,2013-12-11 16:33:00,
2013-12-11 10:43:00,-6.0,-16.0,-100.00,North,-999,0.0,0.0,60,0.00,,,0.00,186.000000,,2013-12-11 16:43:00,
2013-12-11 10:51:00,-2.0,-15.0,-100.00,North,-999,0.0,0.0,53,0.00,,,0.00,301.000000,,2013-12-11 16:51:00,
2013-12-11 11:22:00,-2.0,-15.0,-100.00,North,-999,0.0,0.0,53,0.00,,,0.00,301.000000,,2013-12-11 17:22:00,
2013-12-11 11:33:00,-2.0,-15.0,-100.00,North,-999,0.0,0.0,53,0.00,,,0.00,301.000000,,2013-12-11 17:33:00,
2013-12-11 11:42:00,-2.0,-15.0,-100.00,North,-999,0.0,0.0,53,0.00,,,0.00,301.000000,,2013-12-11 17:42:00,
2013-12-11 11:51:00,0.0,-14.0,-100.00,North,-999,0.0,0.0,50,0.00,,,0.00,383.000000,,2013-12-11 17:51:00,
2013-12-11 12:22:00,0.0,-14.0,-100.00,North,-999,0.0,0.0,50,0.00,,,0.00,383.000000,,2013-12-11 18:22:00,
2013-12-11 12:32:00,0.0,-14.0,-100.00,North,-999,0.0,0.0,50,0.00,,,0.00,383.000000,,2013-12-11 18:32:00,
2013-12-11 12:43:00,0.0,-14.0,-100.00,North,-999,0.0,0.0,50,0.00,,,0.00,383.000000,,2013-12-11 18:43:00,
2013-12-11 12:51:00,1.0,-14.0,-100.00,WSW,248,7.0,11.0,49,0.00,,,0.00,414.000000,,2013-12-11 18:51:00,
2013-12-11 13:22:00,1.0,-14.0,-100.00,WSW,248,7.0,11.0,49,0.00,,,0.00,414.000000,,2013-12-11 19:22:00,
2013-12-11 13:32:00,1.0,-14.0,-100.00,WSW,248,7.0,11.0,49,0.00,,,0.00,414.000000,,2013-12-11 19:32:00,
2013-12-11 13:42:00,1.0,-14.0,-100.00,WSW,248,7.0,11.0,49,0.00,,,0.00,414.000000,,2013-12-11 19:42:00,
2013-12-11 13:51:00,2.0,-13.0,-100.00,WSW,240,6.0,12.0,48,0.00,,,0.00,378.000000,,2013-12-11 19:51:00,
2013-12-11 14:22:00,2.0,-13.0,-100.00,WSW,240,6.0,12.0,48,0.00,,,0.00,378.000000,,2013-12-11 20:22:00,
2013-12-11 14:32:00,2.0,-13.0,-100.00,WSW,240,6.0,12.0,48,0.00,,,0.00,378.000000,,2013-12-11 20:32:00,
2013-12-11 14:42:00,2.0,-13.0,-100.00,WSW,240,6.0,12.0,48,0.00,,,0.00,378.000000,,2013-12-11 20:42:00,
2013-12-11 14:51:00,1.0,-12.0,-100.00,SW,236,9.0,12.0,53,0.00,,,0.00,210.000000,,2013-12-11 20:51:00,
2013-12-11 15:22:00,1.0,-12.0,-100.00,SW,236,9.0,12.0,53,0.00,,,0.00,210.000000,,2013-12-11 21:22:00,
2013-12-11 15:33:00,1.0,-12.0,-100.00,SW,236,9.0,12.0,53,0.00,,,0.00,210.000000,,2013-12-11 21:33:00,
2013-12-11 15:43:00,1.0,-12.0,-100.00,SW,236,9.0,12.0,53,0.00,,,0.00,210.000000,,2013-12-11 21:43:00,
2013-12-11 15:51:00,2.0,-10.0,-100.00,SSW,210,6.0,12.0,56,0.00,,,0.00,125.000000,,2013-12-11 21:51:00,
2013-12-11 16:23:00,2.0,-10.0,-100.00,SSW,210,6.0,12.0,56,0.00,,,0.00,125.000000,,2013-12-11 22:23:00,
2013-12-11 16:33:00,2.0,-10.0,-100.00,SSW,210,6.0,12.0,56,0.00,,,0.00,125.000000,,2013-12-11 22:33:00,
2013-12-11 16:42:00,2.0,-10.0,-100.00,SSW,210,6.0,12.0,56,0.00,,,0.00,125.000000,,2013-12-11 22:42:00,
2013-12-11 16:51:00,1.0,-9.0,-100.00,SSE,153,6.0,9.0,62,0.00,,,0.00,33.000000,,2013-12-11 22:51:00,
2013-12-11 17:22:00,1.0,-9.0,-100.00,SSE,153,6.0,9.0,62,0.00,,,0.00,33.000000,,2013-12-11 23:22:00,
2013-12-11 17:33:00,1.0,-9.0,-100.00,SSE,153,6.0,9.0,62,0.00,,,0.00,33.000000,,2013-12-11 23:33:00,
2013-12-11 17:43:00,1.0,-9.0,-100.00,SSE,153,6.0,9.0,62,0.00,,,0.00,33.000000,,2013-12-11 23:43:00,
2013-12-11 17:51:00,2.0,-7.0,-100.00,SSE,149,8.0,13.0,66,0.00,,,0.00,0.000000,,2013-12-11 23:51:00,
2013-12-11 18:22:00,2.0,-7.0,-100.00,SSE,149,8.0,13.0,66,0.00,,,0.00,0.000000,,2013-12-12 00:22:00,
2013-12-11 18:32:00,2.0,-7.0,-100.00,SSE,149,8.0,13.0,66,0.00,,,0.00,0.000000,,2013-12-12 00:32:00,
2013-12-11 18:42:00,2.0,-7.0,-100.00,SSE,149,8.0,13.0,66,0.00,,,0.00,0.000000,,2013-12-12 00:42:00,
2013-12-11 18:51:00,2.0,-6.0,-100.00,SSE,155,8.0,12.0,67,0.00,,,0.00,0.000000,,2013-12-12 00:51:00,
2013-12-11 19:22:00,2.0,-6.0,-100.00,SSE,155,8.0,12.0,67,0.00,,,0.00,0.000000,,2013-12-12 01:22:00,
2013-12-11 19:32:00,2.0,-6.0,-100.00,SSE,155,8.0,12.0,67,0.00,,,0.00,0.000000,,2013-12-12 01:32:00,
2013-12-11 19:42:00,2.0,-6.0,-100.00,SSE,155,8.0,12.0,67,0.00,,,0.00,0.000000,,2013-12-12 01:42:00,
2013-12-11 19:51:00,2.0,-6.0,-100.00,SE,143,7.0,12.0,69,0.00,,,0.00,0.000000,,2013-12-12 01:51:00,
2013-12-11 20:21:00,2.0,-6.0,-100.00,SE,143,7.0,12.0,69,0.00,,,0.00,0.000000,,2013-12-12 02:21:00,
2013-12-11 20:32:00,2.0,-6.0,-100.00,SE,143,7.0,12.0,69,0.00,,,0.00,0.000000,,2013-12-12 02:32:00,
2013-12-11 20:42:00,2.0,-6.0,-100.00,SE,143,7.0,12.0,69,0.00,,,0.00,0.000000,,2013-12-12 02:42:00,
2013-12-11 20:51:00,3.0,-5.0,-100.00,SSE,150,7.0,11.0,70,0.00,,,0.00,0.000000,,2013-12-12 02:51:00,
2013-12-11 21:22:00,3.0,-5.0,-100.00,SSE,150,7.0,11.0,70,0.00,,,0.00,0.000000,,2013-12-12 03:22:00,
2013-12-11 21:32:00,3.0,-5.0,-100.00,SSE,150,7.0,11.0,70,0.00,,,0.00,0.000000,,2013-12-12 03:32:00,
2013-12-11 21:44:00,3.0,-5.0,-100.00,SSE,150,7.0,11.0,70,0.00,,,0.00,0.000000,,2013-12-12 03:44:00,
2013-12-11 21:51:00,6.0,-2.0,-100.00,SSE,161,7.0,10.0,69,0.00,,,0.00,0.000000,,2013-12-12 03:51:00,
2013-12-11 22:23:00,6.0,-2.0,-100.00,SSE,161,7.0,10.0,69,0.00,,,0.00,0.000000,,2013-12-12 04:23:00,
2013-12-11 22:34:00,6.0,-2.0,-100.00,SSE,161,7.0,10.0,69,0.00,,,0.00,0.000000,,2013-12-12 04:34:00,
2013-12-11 22:43:00,6.0,-2.0,-100.00,SSE,161,7.0,10.0,69,0.00,,,0.00,0.000000,,2013-12-12 04:43:00,
2013-12-11 22:51:00,12.0,4.0,-100.00,SSW,208,10.0,13.0,68,0.00,,,0.00,0.000000,,2013-12-12 04:51:00,
2013-12-11 23:23:00,12.0,4.0,-100.00,SSW,208,10.0,13.0,68,0.00,,,0.00,0.000000,,2013-12-12 05:23:00,
2013-12-11 23:33:00,12.0,4.0,-100.00,SSW,208,10.0,13.0,68,0.00,,,0.00,0.000000,,2013-12-12 05:33:00,
2013-12-11 23:43:00,12.0,4.0,-100.00,SSW,208,10.0,13.0,68,0.00,,,0.00,0.000000,,2013-12-12 05:43:00,
2013-12-11 23:51:00,10.0,3.0,-100.00,North,8,3.0,12.0,74,0.00,,,0.00,0.000000,,2013-12-12 05:51:00,